This demonstration page uses our WeatherBlox Daily Observations layout. Learn more.

41.55636, -103.73856

Hourly Observations for May 31, 2017

Temp ( °F °C ) Dew Point ( °F °C ) Humidity (%) Winds ( mph kmh ) Pressure ( in mb ) Visibility ( mi km ) Precip ( " mm )
12:53 am 00:53 Clear 54 12.2 43 6.1 67 67 E 8 13 30 1016 10 16.0934 0 0
1:53 am 01:53 Clear 54 12.2 41 5 62 62 E 9 15 29.99 1016 10 16.0934 0 0
2:53 am 02:53 Clear 51 10.6 40 4.4 66 66 E 7 11 29.99 1016 10 16.0934 0 0
3:53 am 03:53 Clear 50 10 39 3.9 66 66 E 8 13 29.98 1015 10 16.0934 0 0
4:53 am 04:53 Clear 49 9.4 39 3.9 69 69 E 7 11 29.97 1015 10 16.0934 0 0
5:53 am 05:53 Sunny 49 9.4 38 3.3 66 66 ESE 6 9 29.97 1015 10 16.0934 0 0
6:53 am 06:53 Sunny 53 11.7 39 3.9 59 59 ESE 13 20 29.97 1015 10 16.0934 0 0
7:53 am 07:53 Sunny 58 14.4 39 3.9 50 50 ESE 15 24 29.98 1015 10 16.0934 0 0
8:53 am 08:53 Sunny 60 15.6 40 4.4 47 47 SE 14 22 29.98 1015 10 16.0934 0 0
9:53 am 09:53 Sunny 66 18.9 42 5.6 42 42 ESE 17 28 29.97 1015 10 16.0934 0 0
10:53 am 10:53 Sunny 70 21.1 43 6.1 38 38 SE 17 28 29.96 1014 10 16.0934 0 0
11:53 am 11:53 Sunny 73 22.8 45 7.2 37 37 ESE 14 22 29.94 1014 10 16.0934 0 0
12:53 pm 12:53 Sunny 76 24.4 47 8.3 36 36 ESE 17 28 29.92 1013 10 16.0934 0 0
1:53 pm 13:53 Sunny 79 26.1 48 8.9 34 34 ESE 16 26 29.89 1012 10 16.0934 0 0
2:53 pm 14:53 Sunny 81 27.2 48 8.9 32 32 ESE 16 26 29.89 1012 10 16.0934 0 0
3:53 pm 15:53 Sunny 80 26.7 48 8.9 33 33 ESE 21 33 29.88 1012 10 16.0934 0 0
4:53 pm 16:53 Sunny 80 26.7 48 8.9 33 33 ESE 21 33 29.86 1011 10 16.0934 0 0
5:53 pm 17:53 Sunny 78 25.6 49 9.4 36 36 SE 22 35 29.87 1011 10 16.0934 0 0
6:23 pm 18:23 Sunny with Nearby Thunderstorms 74 23.3 49 9.4 41 41 ESE 14 22 29.74 1007 10 16.0934 0 0
6:53 pm 18:53 Partly Cloudy with Nearby Thunderstorms 72 22.2 50 10 46 46 SSE 13 20 29.89 1012 10 16.0934 0 0
7:19 pm 19:19 Cloudy 73 22.8 51 10.6 46 46 SE 13 20 29.77 1008 10 16.0934 0 0
7:53 pm 19:53 Mostly Sunny 72 22.2 52 11.1 50 50 ESE 18 30 29.86 1011 10 16.0934 0 0.0254
8:53 pm 20:53 Clear 67 19.4 49 9.4 53 53 ESE 18 30 29.89 1012 10 16.0934 0 0
9:53 pm 21:53 Clear 65 18.3 49 9.4 56 56 ESE 20 31 29.89 1012 10 16.0934 0 0
10:53 pm 22:53 Clear 62 16.7 49 9.4 62 62 ESE 12 19 29.9 1013 10 16.0934 0 0
11:53 pm 23:53 Clear 59 15 49 9.4 69 69 ESE 14 22 29.91 1013 10 16.0934 0 0

Powered by AerisWeather